Austin Bergstrom, TX

5:05 AM CDT on July 24, 2017 (GMT -0500)
Austin Bergstrom International

Weather History for KAUS - December, 2012

Change the Weather History Date:

Friday, December 7, 2012

  Actual Average Record
Temperature  
Mean Temperature 64 °F 52 °F  
Max Temperature 78 °F 65 °F 81 °F (1966)
Min Temperature 50 °F 39 °F 17 °F (1950)
Degree Days  
Heating Degree Days 1 14  
Month to date heating degree days 16 93  
Since 1 July heating degree days 270 378  
Cooling Degree Days 0 0  
Month to date cooling degree days 27 5  
Year to date cooling degree days 3153 2746  
Growing Degree Days 18 (Base 50)    
Moisture  
Dew Point 59 °F    
Average Humidity 77    
Maximum Humidity 100    
Minimum Humidity 54    
Precipitation  
Precipitation T in 0.07 in 0.57 in (1960)
Month to date precipitation 0.01 0.54  
Year to date precipitation 34.31 32.97  
Snow  
Snow 0.00 in - - ()
Month to date snowfall 0.0  
Since 1 July snowfall 0.0  
Snow Depth 0.00 in    
Sea Level Pressure  
Sea Level Pressure 29.85 in    
Wind  
Wind Speed 5 mph (South)    
Max Wind Speed 14 mph    
Max Gust Speed 20 mph    
Visibility 6 miles    
Events Fog    
T = Trace of Precipitation, MM = Missing Value Source: NWS Daily Summary

Daily Weather History Graph

Daily Weather History Graph

Search for Another Location

Airport or City:

Trip Planner

Search our weather history database for the weather conditions in past years. The results will help you decide how hot, cold, wet, or windy it might be!

Date:

Astronomy

Dec. 07, 2012 Rise Set
Actual Time 7:14 AM CST 5:30 PM CST
Civil Twilight 6:48 AM CST 5:56 PM CST
Nautical Twilight 6:18 AM CST 6:26 PM CST
Astronomical Twilight 5:49 AM CST 6:55 PM CST
Moon 12:58 AM CST (12/7) 1:07 PM CST (12/7)
Length of Visible Light 11h 08m
Length of Day
10h 16m
Last Quarter, 38% of the Moon is Illuminated
Dec 7
Last Quarter
Dec 13
New
Dec 19
First Quarter
Dec 28
Full
Jan 4
Last Quarter

Hourly Weather History & Observations

Time (CST) Temp. Dew Point Humidity Pressure Visibility Wind Dir Wind Speed Gust Speed Precip Events Conditions
12:18 AM 50.0 °F 48.2 °F 94% 29.88 in 6.0 mi Calm Calm - N/A   Mostly Cloudy
12:53 AM 55.0 °F 53.1 °F 93% 29.86 in 5.0 mi Calm Calm - 0.00 in   Light Drizzle
1:17 AM 57.2 °F 55.4 °F 94% 29.87 in 4.0 mi SSW 4.6 mph - 0.00 in   Light Drizzle
1:22 AM 57.2 °F 55.4 °F 94% 29.87 in 0.5 mi SSW 4.6 mph - 0.00 in   Overcast
1:53 AM 57.9 °F 57.0 °F 97% 29.86 in 0.5 mi SSW 5.8 mph - 0.00 in   Overcast
2:25 AM 57.2 °F 57.2 °F 100% 29.87 in 0.2 mi SSW 6.9 mph - N/A Fog Fog
2:53 AM 59.0 °F 59.0 °F 100% 29.86 in 0.2 mi South 6.9 mph - N/A   Overcast
3:09 AM 59.0 °F 59.0 °F 100% 29.86 in 0.2 mi South 5.8 mph - N/A Fog Fog
3:46 AM 59.0 °F 59.0 °F 100% 29.86 in 0.2 mi Calm Calm - N/A Fog Fog
3:53 AM 59.0 °F 59.0 °F 100% 29.85 in 0.2 mi SSW 3.5 mph - N/A Fog Fog
4:53 AM 60.1 °F 59.0 °F 96% 29.84 in 0.2 mi Calm Calm - N/A Fog Fog
5:53 AM 60.1 °F 60.1 °F 100% 29.85 in 0.5 mi Calm Calm - N/A Fog Fog
6:09 AM 60.8 °F 60.8 °F 100% 29.86 in 2.5 mi Calm Calm - N/A   Overcast
6:19 AM 60.8 °F 60.8 °F 100% 29.86 in 3.0 mi Calm Calm - N/A   Overcast
6:53 AM 61.0 °F 61.0 °F 100% 29.87 in 4.0 mi Calm Calm - N/A   Overcast
7:53 AM 62.1 °F 62.1 °F 100% 29.87 in 3.0 mi Calm Calm - N/A   Overcast
8:04 AM 62.6 °F 62.6 °F 100% 29.88 in 3.0 mi South 4.6 mph - N/A   Overcast
8:33 AM 64.4 °F 62.6 °F 94% 29.88 in 2.5 mi South 5.8 mph - N/A   Overcast
8:53 AM 64.9 °F 64.0 °F 97% 29.88 in 2.5 mi South 8.1 mph - N/A   Overcast
9:15 AM 64.4 °F 64.4 °F 100% 29.89 in 3.0 mi South 10.4 mph - N/A   Overcast
9:53 AM 69.1 °F 63.0 °F 81% 29.89 in 3.0 mi SSW 9.2 mph - N/A   Mostly Cloudy
10:23 AM 69.8 °F 62.6 °F 78% 29.90 in 10.0 mi SSW 6.9 mph - N/A   Overcast
10:53 AM 72.0 °F 61.0 °F 68% 29.89 in 10.0 mi SSW 9.2 mph - N/A   Overcast
11:53 AM 73.9 °F 60.1 °F 62% 29.86 in 10.0 mi SSW 11.5 mph - N/A   Overcast
12:53 PM 75.0 °F 59.0 °F 57% 29.82 in 10.0 mi South 11.5 mph - N/A   Overcast
1:53 PM 77.0 °F 59.0 °F 54% 29.79 in 9.0 mi South 9.2 mph - N/A   Overcast
2:53 PM 77.0 °F 59.0 °F 54% 29.78 in 10.0 mi South 9.2 mph - N/A   Mostly Cloudy
3:53 PM 77.0 °F 59.0 °F 54% 29.77 in 10.0 mi South 9.2 mph - N/A   Mostly Cloudy
4:53 PM 75.9 °F 60.1 °F 58% 29.77 in 10.0 mi SSE 8.1 mph - N/A   Mostly Cloudy
5:53 PM 68.0 °F 59.0 °F 73% 29.79 in 10.0 mi Calm Calm - N/A   Mostly Cloudy
6:53 PM 60.8 °F 55.4 °F 82% 29.80 in 10.0 mi Calm Calm - N/A   Mostly Cloudy
7:53 PM 60.8 °F 57.2 °F 88% 29.81 in 10.0 mi Calm Calm - N/A   Mostly Cloudy
8:53 PM 57.9 °F 55.0 °F 90% 29.83 in 10.0 mi Calm Calm - N/A   Scattered Clouds
9:53 PM 62.1 °F 57.9 °F 86% 29.84 in 10.0 mi South 3.5 mph - N/A   Mostly Cloudy
10:53 PM 60.1 °F 57.0 °F 90% 29.84 in 10.0 mi South 6.9 mph - N/A   Scattered Clouds
11:53 PM 57.0 °F 54.0 °F 89% 29.84 in 8.0 mi Calm Calm - N/A   Scattered Clouds